Mojave, CA

12:45 AM PST on December 10, 2019 (GMT -0800)
Mojave

Weather History for KMHV - May, 2019

Change the Weather History Date:

Wednesday, May 1, 2019

  Actual Average Record
Temperature  
Mean Temperature 58 °F -  
Max Temperature 73 °F 77 °F 90 °F (1981)
Min Temperature 44 °F 49 °F 35 °F (1967)
Degree Days  
Heating Degree Days 6    
Growing Degree Days 8 (Base 50)    
Moisture  
Dew Point 38 °F    
Average Humidity 47    
Maximum Humidity 76    
Minimum Humidity 20    
Precipitation  
Precipitation 0.00 in - - ()
Sea Level Pressure  
Sea Level Pressure 29.97 in    
Wind  
Wind Speed 11 mph (NW)    
Max Wind Speed 25 mph    
Max Gust Speed 37 mph    
Visibility 10 miles    
Events      
Averages and records for this station are not official NWS values.
T = Trace of Precipitation, MM = Missing Value Source: NWS Daily Summary

Daily Weather History Graph

Daily Weather History Graph

Search for Another Location

Airport or City:

Astronomy

May. 01, 2019 Rise Set
Actual Time 6:01 AM PDT 7:38 PM PDT
Civil Twilight 5:34 AM PDT 8:05 PM PDT
Nautical Twilight 5:02 AM PDT 8:37 PM PDT
Astronomical Twilight 4:27 AM PDT 9:12 PM PDT
Moon 4:37 AM PDT (5/1) 4:41 PM PDT (5/1)
Length of Visible Light 14h 30m
Length of Day
13h 36m
Waning Crescent, 10% of the Moon is Illuminated
May 1
Waning Crescent
May 4
New
May 11
First Quarter
May 18
Full
May 26
Last Quarter

Hourly Weather History & Observations

Time (PDT) Temp. Windchill Dew Point Humidity Pressure Visibility Wind Dir Wind Speed Gust Speed Precip Events Conditions
12:00 AM 53.6 °F - 41.0 °F 62% 29.94 in 10.0 mi SSW 9.2 mph - N/A   Overcast
12:20 AM 53.6 °F - 41.0 °F 62% 29.94 in 10.0 mi SW 12.7 mph - N/A   Mostly Cloudy
12:40 AM 53.6 °F - 41.0 °F 62% 29.92 in 10.0 mi WSW 21.9 mph - N/A   Partly Cloudy
1:00 AM 53.6 °F - 42.8 °F 67% 29.90 in 10.0 mi WNW 13.8 mph 24.2 mph N/A   Partly Cloudy
1:20 AM 53.6 °F - 42.8 °F 67% 29.89 in 10.0 mi West 23.0 mph 36.8 mph N/A   Clear
1:40 AM 53.6 °F - 42.8 °F 67% 29.93 in 10.0 mi Variable 5.8 mph 15.0 mph N/A   Clear
2:00 AM 55.4 °F - 41.0 °F 58% 29.92 in 10.0 mi Variable 6.9 mph 17.3 mph N/A   Partly Cloudy
2:20 AM 53.6 °F - 41.0 °F 62% 29.91 in 10.0 mi West 19.6 mph - N/A   Partly Cloudy
2:40 AM 53.6 °F - 41.0 °F 62% 29.91 in 10.0 mi West 17.3 mph 26.5 mph N/A   Partly Cloudy
3:00 AM 53.6 °F - 41.0 °F 62% 29.92 in 10.0 mi West 16.1 mph - N/A   Partly Cloudy
3:20 AM 51.8 °F - 41.0 °F 67% 29.93 in 10.0 mi West 12.7 mph 21.9 mph N/A   Scattered Clouds
3:40 AM 51.8 °F - 41.0 °F 67% 29.93 in 10.0 mi WNW 10.4 mph - N/A   Mostly Cloudy
4:00 AM 51.8 °F - 39.2 °F 62% 29.93 in 10.0 mi WNW 10.4 mph - N/A   Mostly Cloudy
4:20 AM 53.6 °F - 39.2 °F 58% 29.94 in 10.0 mi NW 8.1 mph 15.0 mph N/A   Mostly Cloudy
4:40 AM 51.8 °F - 37.4 °F 58% 29.94 in 10.0 mi NNW 6.9 mph - N/A   Overcast
5:00 AM 50.0 °F - 35.6 °F 58% 29.95 in 10.0 mi NNW 4.6 mph - N/A   Overcast
5:20 AM 50.0 °F - 37.4 °F 62% 29.96 in 10.0 mi NE 3.5 mph - N/A   Mostly Cloudy
5:40 AM 48.2 °F - 37.4 °F 66% 29.96 in 10.0 mi ENE 4.6 mph - N/A   Mostly Cloudy
6:00 AM 46.4 °F - 39.2 °F 76% 29.97 in 10.0 mi Calm Calm - N/A   Partly Cloudy
6:20 AM 44.6 °F - 37.4 °F 76% 29.98 in 10.0 mi Calm Calm - N/A   Clear
6:40 AM 46.4 °F 44.3 °F 39.2 °F 76% 29.99 in 10.0 mi North 4.6 mph - N/A   Clear
7:00 AM 48.2 °F - 41.0 °F 76% 30.00 in 10.0 mi Calm Calm - N/A   Clear
7:20 AM 48.2 °F - 41.0 °F 76% 30.01 in 10.0 mi Calm Calm - N/A   Clear
7:40 AM 50.0 °F - 41.0 °F 71% 30.01 in 10.0 mi Calm Calm - N/A   Clear
8:00 AM 51.8 °F - 41.0 °F 67% 30.02 in 10.0 mi Calm Calm - N/A   Clear
8:20 AM 53.6 °F - 41.0 °F 62% 30.02 in 10.0 mi Calm Calm - N/A   Clear
8:40 AM 55.4 °F - 41.0 °F 58% 30.03 in 10.0 mi Calm Calm - N/A   Clear
9:00 AM 57.2 °F - 39.2 °F 51% 30.03 in 10.0 mi East 4.6 mph - N/A   Clear
9:20 AM 59.0 °F - 37.4 °F 45% 30.03 in 10.0 mi ENE 6.9 mph 12.7 mph N/A   Clear
9:40 AM 60.8 °F - 33.8 °F 36% 30.03 in 10.0 mi NE 12.7 mph - N/A   Clear
10:00 AM 62.6 °F - 32.0 °F 32% 30.03 in 10.0 mi NE 13.8 mph - N/A   Clear
10:20 AM 62.6 °F - 32.0 °F 32% 30.03 in 10.0 mi NE 10.4 mph - N/A   Clear
10:40 AM 62.6 °F - 32.0 °F 32% 30.03 in 10.0 mi East 10.4 mph 21.9 mph N/A   Clear
11:00 AM 64.4 °F - 30.2 °F 28% 30.03 in 10.0 mi ENE 10.4 mph 17.3 mph N/A   Clear
11:20 AM 64.4 °F - 30.2 °F 28% 30.03 in 10.0 mi NE 10.4 mph 16.1 mph N/A   Clear
11:40 AM 66.2 °F - 30.2 °F 26% 30.03 in 10.0 mi Variable 4.6 mph 17.3 mph N/A   Clear
12:00 PM 66.2 °F - 30.2 °F 26% 30.03 in 10.0 mi NE 8.1 mph - N/A   Clear
12:20 PM 66.2 °F - 30.2 °F 26% 30.02 in 10.0 mi Variable 6.9 mph 12.7 mph N/A   Clear
12:40 PM 66.2 °F - 32.0 °F 28% 30.01 in 10.0 mi ESE 8.1 mph - N/A   Clear
1:00 PM 68.0 °F - 32.0 °F 26% 30.01 in 10.0 mi ESE 10.4 mph 17.3 mph N/A   Clear
1:20 PM 68.0 °F - 32.0 °F 26% 30.00 in 10.0 mi SE 9.2 mph - N/A   Clear
1:40 PM 68.0 °F - 32.0 °F 26% 30.00 in 10.0 mi WSW 9.2 mph - N/A   Clear
2:00 PM 69.8 °F - 32.0 °F 25% 29.99 in 10.0 mi Calm Calm 16.1 mph N/A   Clear
2:20 PM 69.8 °F - 30.2 °F 23% 29.99 in 10.0 mi NE 6.9 mph - N/A   Clear
2:40 PM 69.8 °F - 30.2 °F 23% 29.98 in 10.0 mi Calm Calm 12.7 mph N/A   Clear
3:00 PM 71.6 °F - 30.2 °F 22% 29.97 in 10.0 mi Calm Calm 11.5 mph N/A   Clear
3:20 PM 71.6 °F - 30.2 °F 22% 29.96 in - Variable 5.8 mph 12.7 mph N/A   Unknown
3:40 PM - - - N/A% - - North - - N/A   Unknown
4:00 PM 71.6 °F - 30.2 °F 22% 29.95 in 10.0 mi SE 4.6 mph - N/A   Unknown
4:20 PM 73.4 °F - 30.2 °F 20% 29.94 in 10.0 mi SSW 8.1 mph 13.8 mph N/A   Clear
4:40 PM 71.6 °F - 30.2 °F 22% 29.94 in 10.0 mi Variable 3.5 mph 11.5 mph N/A   Clear
5:00 PM 73.4 °F - 33.8 °F 23% 29.93 in 10.0 mi Variable 4.6 mph - N/A   Clear
5:20 PM 73.4 °F - 35.6 °F 25% 29.93 in 10.0 mi SW 9.2 mph 15.0 mph N/A   Clear
5:40 PM 73.4 °F - 42.8 °F 33% 29.93 in 10.0 mi WNW 16.1 mph - N/A   Clear
6:00 PM 71.6 °F - 42.8 °F 35% 29.93 in 10.0 mi WNW 16.1 mph - N/A   Clear
6:20 PM 69.8 °F - 42.8 °F 38% 29.93 in 10.0 mi WNW 16.1 mph - N/A   Clear
6:40 PM 68.0 °F - 42.8 °F 40% 29.93 in 10.0 mi WNW 16.1 mph - N/A   Clear
7:00 PM 68.0 °F - 42.8 °F 40% 29.93 in 10.0 mi WNW 15.0 mph 21.9 mph N/A   Clear
7:20 PM 66.2 °F - 42.8 °F 43% 29.93 in 10.0 mi WNW 17.3 mph - N/A   Clear
7:40 PM 64.4 °F - 42.8 °F 45% 29.93 in 10.0 mi WNW 16.1 mph - N/A   Clear
8:00 PM 64.4 °F - 42.8 °F 45% 29.93 in 10.0 mi WNW 20.7 mph 26.5 mph N/A   Clear
8:20 PM 62.6 °F - 41.0 °F 45% 29.94 in 10.0 mi WNW 23.0 mph - N/A   Partly Cloudy
8:40 PM 62.6 °F - 41.0 °F 45% 29.96 in 10.0 mi WNW 19.6 mph 27.6 mph N/A   Partly Cloudy
9:00 PM 62.6 °F - 42.8 °F 48% 29.96 in 10.0 mi WNW 24.2 mph - N/A   Scattered Clouds
9:20 PM 60.8 °F - 42.8 °F 52% 29.98 in 10.0 mi WNW 23.0 mph 31.1 mph N/A   Partly Cloudy
9:40 PM 60.8 °F - 42.8 °F 52% 29.98 in 10.0 mi WNW 25.3 mph - N/A   Scattered Clouds
10:00 PM 60.8 °F - 41.0 °F 48% 29.99 in 10.0 mi WNW 21.9 mph 33.4 mph N/A   Partly Cloudy
10:20 PM 60.8 °F - 41.0 °F 48% 30.00 in 10.0 mi WNW 19.6 mph 36.8 mph N/A   Clear
10:40 PM 60.8 °F - 41.0 °F 48% 30.00 in 10.0 mi WNW 24.2 mph 33.4 mph N/A   Clear
11:00 PM 60.8 °F - 41.0 °F 48% 30.00 in 10.0 mi WNW 23.0 mph 31.1 mph N/A   Clear
11:20 PM 59.0 °F - 41.0 °F 51% 30.00 in 10.0 mi WNW 24.2 mph 34.5 mph N/A   Clear
11:40 PM 59.0 °F - 41.0 °F 51% 30.01 in 10.0 mi WNW 21.9 mph 32.2 mph N/A   Partly Cloudy